Wind_Speed
18 18 18 17 18 17 17 18 19 20 21 21 21 21 22 23 24 25 25 26 26 27 28 28 28 27 28 29 29 28 28 29 29 29 29 29 29 29 29 29 30 30 30
18 18 19 19 18 18 18 19 20 20 21 21 22 23 24 25 25 26 27 27 27 28 28 28 28 29 29 29 29 29 30 30 30 29 29 29 30 30 30 30 30 30 31
18 19 19 18 18 19 20 20 20 20 21 23 24 24 24 25 26 26 27 27 27 27 28 28 29 29 28 28 29 29 30 30 30 30 30 29 29 29 30 30 30 31 31
17 17 18 19 19 20 21 21 21 21 22 23 23 24 24 25 26 26 27 28 28 28 28 28 27 27 28 28 28 29 30 31 30 30 31 31 30 30 30 30 31 31 31
17 17 18 19 19 20 21 21 21 22 23 23 24 25 25 25 26 26 27 28 28 28 28 28 28 28 29 29 29 29 30 30 31 31 31 32 31 30 30 30 31 31 31
17 17 17 19 20 20 20 21 22 22 23 24 25 25 26 27 27 28 29 29 29 29 29 29 29 30 30 30 30 30 30 30 31 31 32 31 31 31 30 30 30 31 31
16 17 17 18 19 20 21 22 22 23 24 25 26 27 27 28 29 30 30 30 30 30 30 30 30 30 31 31 31 31 31 31 31 31 31 31 30 30 30 30 31 31 31
16 17 18 18 19 21 22 22 23 24 25 26 27 28 28 29 30 31 30 31 31 31 30 30 30 30 31 31 31 31 31 31 31 31 31 31 31 31 31 31 31 31 31
16 17 18 19 20 21 23 23 24 25 26 26 26 27 27 28 29 29 30 30 31 31 31 30 30 30 30 30 31 31 31 30 30 30 30 31 31 30 30 30 30 30 30
17 17 18 20 21 22 24 25 26 26 27 26 26 25 26 27 27 27 28 28 29 29 29 29 29 29 29 29 29 29 29 29 29 29 29 29 30 30 30 30 30 30 30
17 18 19 20 22 23 24 25 25 26 26 25 25 25 25 25 26 26 27 27 27 27 27 27 28 28 27 27 27 28 28 27 28 28 28 28 28 28 29 29 29 28 28
17 18 19 20 21 23 24 24 25 26 25 24 25 24 24 25 26 26 27 27 26 26 26 26 26 26 26 26 26 26 26 26 26 26 26 26 27 27 27 28 28 27 27
17 18 19 21 22 23 24 24 24 24 24 24 24 24 24 25 25 26 26 26 25 25 25 25 25 25 26 26 25 25 25 25 25 24 24 25 25 25 26 26 26 26 26
18 19 20 21 23 23 23 23 23 23 23 23 23 23 23 24 24 24 24 24 24 24 24 24 24 24 24 24 24 24 24 24 23 23 23 23 24 24 24 24 24 24 25
19 20 20 21 21 21 21 21 21 21 22 22 22 22 22 22 22 22 22 22 22 23 22 22 22 22 22 21 21 21 21 22 22 22 21 21 22 22 22 22 23 23 23
18 19 19 19 20 20 20 21 20 20 20 21 21 20 21 20 20 20 20 20 20 21 21 20 20 20 19 19 18 18 18 19 19 19 20 20 20 20 20 21 21 21 21
17 17 17 18 18 19 19 19 18 18 18 18 18 18 18 17 17 17 17 17 17 17 17 17 17 17 16 16 16 16 16 16 16 17 17 17 17 17 17 18 18 18 18
15 15 16 16 16 17 17 16 15 15 15 16 16 16 16 16 16 16 16 16 16 15 15 14 14 14 14 14 14 14 14 14 13 13 13 13 13 14 14 14 14 15 15
13 14 15 15 15 15 15 14 13 14 14 14 15 14 14 14 14 15 14 13 13 13 12 12 12 12 12 11 11 11 10 10 9 9 8 8 9 9 10 10 10 11 11
12 13 14 13 13 13 13 13 12 13 13 14 14 14 13 13 13 13 13 12 11 11 10 10 9 9 9 8 8 8 7 6 5 5 5 5 5 5 5 6 6 7 7
12 12 12 12 12 12 12 11 11 11 12 13 13 12 11 11 11 12 11 10 9 8 8 7 7 6 6 6 6 5 5 4 3 3 3 2 1 1 2 3 3 4 4
11 11 11 10 11 11 10 10 10 11 11 11 11 11 10 10 11 10 10 9 8 7 6 5 5 5 5 5 5 5 4 3 3 3 3 3 3 3 4 5 5 4 4
9 9 9 9 10 10 10 10 10 11 11 11 10 10 9 9 10 9 9 8 8 7 6 5 5 5 5 5 5 6 5 5 5 6 6 6 6 7 7 7 6 6 6
8 8 8 8 9 9 9 10 10 10 9 10 10 9 9 9 9 9 8 8 8 7 7 6 6 6 6 6 7 8 8 8 8 8 8 9 9 10 10 9 9 9 8
7 7 7 8 9 9 9 8 8 8 9 9 9 9 9 9 9 8 9 9 9 8 8 8 8 8 8 9 10 10 10 11 11 11 11 12 12 12 11 11 10 9 9
6 6 7 7 8 8 8 8 8 9 8 8 8 8 8 8 9 9 9 9 10 10 10 10 10 10 10 11 12 12 12 12 12 11 12 13 13 13 12 12 12 11 11
Wind_Direction
274 274 276 276 275 277 279 279 275 273 274 272 270 270 270 271 272 272 273 272 271 271 272 272 273 274 274 274 274 273 272 272 272 272 270 270 270 269 269 267 265 262 261
276 274 274 274 275 280 283 282 279 280 275 272 273 271 270 271 272 273 273 273 273 271 271 272 272 273 274 275 274 273 271 271 271 270 269 269 269 269 269 267 265 262 261
275 275 274 275 281 285 288 287 283 284 280 276 273 272 272 273 273 273 273 273 273 271 270 272 274 273 273 274 274 273 271 270 270 269 269 269 270 270 268 267 265 262 261
277 277 277 278 282 283 286 286 284 284 282 280 278 276 275 275 274 274 274 275 275 274 273 273 274 274 274 275 274 273 271 271 269 269 269 269 270 269 267 265 265 263 261
280 280 279 279 281 284 285 285 285 285 284 283 281 279 277 276 275 275 276 277 277 276 276 276 276 276 276 276 276 275 272 270 269 270 269 268 267 266 265 263 263 263 261
282 279 280 279 280 284 286 287 287 287 285 284 283 280 279 277 277 278 278 279 278 277 277 277 277 277 277 275 275 274 272 271 270 270 269 268 266 265 264 262 262 262 262
282 279 278 280 283 286 288 288 290 288 286 284 283 281 279 279 278 278 279 279 279 279 279 278 278 278 277 276 275 273 273 271 270 269 268 267 266 265 264 264 263 262 263
281 281 279 283 286 288 290 290 290 289 287 285 284 282 281 280 279 279 280 281 281 281 280 279 279 279 279 278 276 275 274 272 271 269 267 266 265 265 264 264 263 262 262
284 285 284 286 289 291 292 292 291 289 288 287 286 283 282 282 282 283 283 283 283 282 280 279 280 281 280 279 277 276 275 273 271 269 267 265 265 265 264 264 264 263 262
284 285 286 287 289 292 293 293 292 291 290 289 286 284 284 286 287 287 287 286 284 282 281 280 280 282 282 281 279 278 276 273 272 270 268 265 264 264 264 264 265 264 262
284 286 289 290 291 293 294 294 292 292 291 289 288 286 286 288 289 289 290 288 285 284 284 282 282 282 282 282 280 279 276 274 272 270 268 266 264 264 264 264 264 265 263
284 286 289 291 292 294 295 294 293 294 292 292 293 291 290 290 290 290 292 290 287 286 285 284 284 284 284 282 281 279 277 274 272 270 269 267 266 265 264 264 263 264 262
287 288 289 292 294 296 296 295 295 294 292 292 293 293 293 292 292 292 291 290 288 288 287 285 284 284 284 284 283 280 278 274 272 270 269 267 266 265 264 264 263 263 263
289 292 292 292 295 296 296 295 295 294 293 293 294 295 294 293 292 292 291 290 289 289 288 286 285 286 285 285 284 281 278 275 273 272 271 269 267 265 264 263 262 262 262
292 295 294 294 297 297 295 295 297 295 295 294 295 296 295 294 293 292 291 290 290 290 290 289 287 288 288 286 285 283 280 277 275 274 272 270 268 266 263 262 262 262 261
293 295 296 297 299 300 299 297 296 295 295 294 294 295 296 296 297 296 295 294 293 292 292 292 291 291 290 289 289 287 285 281 278 275 273 271 269 267 264 262 261 260 260
294 298 301 302 302 302 301 301 300 299 298 299 299 298 298 300 301 302 301 300 299 297 295 295 295 293 292 293 293 291 290 287 282 279 275 271 268 265 262 260 259 259 259
298 299 303 305 304 305 305 304 301 302 304 306 306 302 301 303 307 307 306 305 305 302 300 299 299 298 298 297 297 296 295 293 289 283 280 275 268 263 259 258 257 256 255
303 305 306 307 310 308 307 307 305 306 310 313 313 310 310 311 313 314 313 311 310 307 305 306 306 304 303 302 302 304 302 299 294 288 282 277 268 262 257 252 249 248 249
308 309 310 310 314 314 312 310 310 311 315 318 317 316 316 316 318 321 320 318 316 315 312 313 313 311 311 313 315 314 311 308 307 308 302 282 270 261 244 235 233 235 237
310 314 315 314 316 318 317 316 317 319 322 324 322 322 324 327 329 329 329 328 329 327 325 325 327 325 325 333 334 333 328 327 335 340 337 319 260 195 194 196 195 201 209
315 318 321 324 325 326 327 326 328 330 332 332 330 332 335 337 339 339 342 345 348 350 350 352 355 354 352 360 7 10 12 20 32 40 48 61 84 101 115 129 136 146 154
320 324 327 329 331 332 333 334 336 337 340 344 343 344 348 349 351 354 360 6 12 18 22 24 23 26 31 38 37 36 42 56 66 70 77 86 94 101 107 114 115 119 123
327 332 335 337 339 339 339 341 344 349 351 355 358 358 359 1 5 13 22 30 35 37 39 43 52 52 52 52 54 58 62 71 78 81 81 90 92 97 99 104 106 109 109
335 340 342 343 344 344 346 350 353 356 357 358 2 8 12 15 25 33 38 42 47 51 54 59 62 63 65 65 65 66 75 82 82 83 86 89 91 92 93 97 102 101 99
344 345 347 349 351 354 359 2 4 5 7 10 14 19 25 33 42 46 49 53 55 57 61 64 66 70 74 75 76 77 82 85 84 82 85 88 89 91 94 96 97 95 93
Height
5860 5860 5859 5859 5858 5858 5857 5856 5855 5854 5853 5852 5851 5850 5850 5849 5848 5847 5846 5845 5844 5843 5843 5842 5841 5840 5839 5838 5838 5837 5837 5837 5836 5836 5836 5836 5835 5835 5835 5835 5836 5836 5837
5856 5856 5855 5855 5854 5853 5852 5851 5850 5849 5848 5847 5846 5846 5845 5843 5842 5841 5840 5839 5838 5837 5836 5835 5835 5834 5833 5832 5831 5830 5830 5830 5829 5829 5829 5829 5829 5828 5828 5828 5828 5828 5829
5853 5852 5851 5850 5849 5849 5848 5846 5845 5844 5843 5842 5841 5839 5838 5837 5836 5835 5834 5833 5831 5831 5829 5828 5828 5826 5825 5825 5824 5823 5823 5822 5822 5822 5822 5821 5821 5820 5821 5820 5820 5821 5822
5848 5848 5847 5846 5845 5844 5843 5841 5840 5839 5837 5836 5835 5833 5832 5831 5830 5829 5828 5826 5825 5824 5822 5821 5820 5819 5818 5817 5816 5816 5815 5815 5814 5814 5814 5814 5813 5813 5813 5813 5813 5813 5814
5844 5843 5843 5842 5841 5840 5838 5837 5835 5833 5832 5830 5828 5827 5826 5825 5823 5822 5821 5819 5818 5816 5815 5814 5813 5812 5811 5810 5809 5808 5808 5807 5807 5806 5806 5806 5806 5806 5806 5806 5806 5806 5806
5840 5839 5838 5837 5836 5835 5833 5832 5830 5828 5826 5824 5822 5821 5819 5818 5816 5815 5814 5812 5811 5809 5808 5806 5805 5804 5803 5802 5801 5800 5800 5799 5799 5798 5798 5798 5798 5798 5798 5798 5798 5798 5798
5836 5835 5834 5833 5832 5830 5828 5826 5825 5822 5820 5818 5816 5814 5812 5811 5809 5808 5806 5804 5803 5801 5800 5798 5797 5795 5794 5793 5793 5792 5791 5791 5790 5790 5790 5790 5790 5790 5790 5791 5791 5791 5791
5832 5831 5830 5828 5827 5825 5823 5821 5819 5817 5814 5812 5809 5807 5805 5803 5802 5800 5798 5796 5794 5793 5791 5790 5789 5787 5786 5785 5784 5783 5782 5782 5781 5781 5781 5781 5782 5782 5782 5783 5783 5783 5784
5829 5827 5825 5824 5822 5820 5818 5815 5813 5811 5808 5805 5802 5800 5798 5796 5794 5792 5790 5788 5786 5785 5783 5781 5780 5779 5777 5776 5775 5774 5774 5773 5772 5772 5772 5773 5773 5774 5774 5775 5775 5776 5776
5824 5822 5821 5819 5817 5815 5812 5810 5807 5804 5801 5798 5795 5793 5791 5789 5787 5785 5782 5780 5778 5777 5775 5774 5772 5771 5769 5768 5767 5766 5765 5764 5764 5764 5764 5764 5765 5766 5766 5767 5767 5768 5769
5819 5818 5816 5814 5812 5810 5807 5804 5800 5797 5794 5791 5788 5786 5784 5782 5780 5778 5776 5773 5771 5769 5768 5766 5765 5763 5762 5760 5759 5758 5757 5756 5756 5756 5756 5757 5757 5758 5758 5759 5759 5760 5761
5814 5813 5811 5809 5806 5804 5801 5797 5794 5791 5788 5785 5782 5780 5778 5776 5773 5771 5769 5767 5764 5762 5761 5759 5757 5756 5754 5753 5751 5750 5749 5749 5749 5749 5749 5749 5750 5750 5751 5751 5752 5753 5753
5809 5808 5805 5803 5801 5798 5795 5791 5788 5785 5782 5779 5777 5774 5771 5769 5767 5764 5762 5760 5757 5756 5754 5752 5750 5748 5747 5745 5744 5743 5742 5742 5741 5741 5742 5742 5742 5743 5743 5744 5744 5745 5746
5804 5802 5800 5797 5795 5792 5789 5786 5782 5779 5776 5774 5771 5768 5765 5762 5760 5757 5755 5753 5751 5749 5747 5745 5743 5741 5740 5738 5737 5736 5735 5735 5734 5734 5734 5735 5735 5735 5736 5737 5737 5738 5739
5799 5797 5794 5792 5789 5786 5783 5780 5777 5774 5771 5768 5765 5762 5759 5757 5754 5751 5749 5746 5744 5742 5740 5738 5736 5735 5733 5732 5731 5730 5729 5728 5728 5727 5727 5728 5728 5728 5729 5730 5731 5731 5732
5793 5791 5789 5786 5783 5781 5778 5774 5772 5769 5766 5763 5760 5757 5754 5751 5748 5746 5743 5740 5738 5736 5735 5733 5731 5729 5728 5726 5725 5724 5723 5722 5721 5721 5721 5721 5722 5722 5723 5723 5724 5725 5726
5788 5786 5784 5781 5779 5776 5772 5769 5767 5764 5761 5758 5755 5752 5749 5746 5743 5741 5738 5736 5733 5732 5730 5728 5726 5725 5723 5722 5721 5719 5718 5717 5716 5716 5715 5715 5715 5716 5717 5717 5718 5719 5721
5784 5782 5779 5777 5774 5771 5768 5765 5762 5760 5757 5754 5751 5748 5745 5742 5740 5737 5734 5732 5729 5727 5726 5724 5722 5721 5719 5718 5717 5715 5714 5712 5711 5711 5710 5710 5710 5710 5711 5712 5713 5714 5715
5780 5778 5775 5773 5770 5767 5764 5761 5759 5757 5754 5751 5748 5745 5742 5739 5736 5733 5731 5728 5726 5724 5722 5720 5719 5717 5716 5715 5713 5712 5711 5709 5708 5707 5707 5706 5706 5706 5707 5707 5709 5710 5711
5776 5774 5772 5769 5767 5764 5761 5759 5756 5754 5751 5748 5745 5742 5739 5737 5734 5731 5728 5725 5723 5721 5719 5718 5716 5715 5714 5712 5711 5710 5708 5707 5706 5705 5704 5704 5704 5704 5704 5705 5706 5708 5709
5773 5771 5769 5766 5764 5761 5759 5756 5754 5751 5749 5746 5743 5740 5737 5735 5732 5729 5726 5724 5721 5719 5717 5716 5714 5713 5712 5711 5710 5708 5707 5706 5705 5704 5703 5703 5702 5702 5703 5704 5705 5707 5708
5770 5768 5766 5764 5761 5759 5756 5754 5752 5749 5747 5744 5741 5738 5736 5733 5731 5728 5725 5722 5720 5718 5716 5715 5714 5713 5712 5711 5709 5708 5707 5706 5705 5704 5703 5703 5703 5703 5703 5704 5705 5706 5708
5768 5766 5764 5762 5760 5757 5755 5753 5750 5748 5745 5743 5740 5737 5735 5732 5730 5727 5725 5722 5720 5718 5717 5715 5714 5713 5712 5711 5710 5709 5707 5706 5706 5705 5704 5704 5704 5704 5705 5705 5706 5707 5708
5766 5764 5762 5760 5758 5756 5754 5752 5749 5747 5745 5742 5740 5737 5735 5732 5730 5727 5725 5723 5721 5719 5718 5717 5715 5714 5714 5713 5711 5710 5709 5708 5707 5707 5706 5706 5706 5706 5707 5707 5708 5709 5710
5765 5763 5761 5759 5757 5755 5753 5751 5748 5746 5744 5742 5740 5737 5735 5733 5730 5728 5726 5724 5723 5721 5720 5719 5718 5717 5716 5715 5713 5712 5711 5711 5710 5710 5709 5709 5709 5709 5709 5710 5711 5712 5712
5763 5762 5760 5758 5756 5754 5752 5750 5748 5746 5744 5742 5740 5738 5736 5734 5732 5730 5728 5727 5725 5724 5723 5722 5720 5719 5718 5717 5717 5715 5715 5714 5714 5713 5713 5712 5712 5713 5713 5713 5714 5714 5715